FW6366 Weather Reports


time (UTC)temp
F
wind
direction
speed
knots
gust
knots
rain 1hr
in
rain 24hr
in
rain mn
in
humidity
%
barometer
mb
20260504171602 65 249 4.3 16.5 0.00 0.00 0.00 45 1006.9
20260504171101 65 37 4.3 16.5 0.00 0.00 0.00 47 1007.1
20260504170602 65 155 6.1 16.5 0.00 0.00 0.00 45 1006.9
20260504160133 61 171 2.6 15.6 0.00 0.00 0.00 50 1007.6
20260504151055 58 186 3.5 10.4 0.00 0.00 0.00 51 1008.1
20260504150602 58 171 4.3 10.4 0.00 0.00 0.00 49 1008.2
20260504150105 58 186 4.3 10.4 0.00 0.00 0.00 49 1008.1
20260504141100 58 196 3.5 9.6 0.00 0.00 0.00 49 1008.2
20260504140559 57 188 4.3 9.6 0.00 0.00 0.00 49 1008.1
20260504140110 56 165 5.2 10.4 0.00 0.00 0.00 52 1008.2
20260504130603 55 271 3.5 12.2 0.00 0.00 0.00 52 1008.3
20260504130103 55 130 1.7 11.3 0.00 0.00 0.00 51 1008.4
20260504110559 48 0 0.0 3.5 0.00 0.00 0.00 79 1008.7
20260504110104 47 134 0.0 3.5 0.00 0.00 0.00 80 1008.6
20260504100602 45 295 0.0 2.6 0.00 0.00 0.00 81 1008.6
20260504081559 46 248 0.9 4.3 0.00 0.00 0.00 79 1009.2
20260504081058 46 207 0.9 7.0 0.00 0.00 0.00 79 1009.1
20260504080557 46 173 0.9 7.0 0.00 0.00 0.00 79 1009.1
20260504070106 46 176 1.7 6.1 0.00 0.00 0.00 78 1009.1
20260504050600 46 191 2.6 7.0 0.00 0.00 0.00 70 1009.7
20260504045559 46 153 2.6 5.2 0.00 0.00 0.00 67 1009.5
20260504045058 47 192 1.7 11.3 0.00 0.00 0.00 68 1009.7
20260504044605 47 181 1.7 11.3 0.00 0.00 0.00 67 1009.7
20260504044059 46 243 4.3 11.3 0.00 0.00 0.00 69 1009.8
20260504043559 45 168 1.7 8.7 0.00 0.00 0.00 69 1009.8
20260504043059 45 280 3.5 8.7 0.00 0.00 0.00 70 1009.9
20260504042559 43 183 0.9 5.2 0.00 0.00 0.00 73 1009.8
20260504042058 43 165 0.9 5.2 0.00 0.00 0.00 72 1009.8
20260504041600 42 174 1.7 3.5 0.00 0.00 0.00 72 1009.8
20260504041058 42 197 0.9 3.5 0.00 0.00 0.00 76 1009.8
20260504040602 41 0 0.0 2.6 0.00 0.00 0.00 78 1009.8
20260504040058 40 0 0.0 7.0 0.00 0.00 0.00 81 1009.8
20260504035559 39 198 0.0 7.0 0.00 0.00 0.00 81 1009.7
20260504035059 39 172 1.7 7.0 0.00 0.00 0.00 81 1009.8
20260504034614 38 198 0.0 3.5 0.00 0.00 0.00 81 1009.7
20260504034059 38 241 1.7 3.5 0.00 0.00 0.00 81 1009.7
20260504033559 38 277 0.0 2.6 0.00 0.00 0.00 81 1009.7
20260504033100 38 0 0.0 3.5 0.00 0.00 0.00 81 1009.7
20260504032559 38 0 0.9 3.5 0.00 0.00 0.00 81 1009.7
20260504032059 37 230 0.0 1.7 0.00 0.00 0.00 81 1009.7
20260504031559 37 0 0.0 1.7 0.00 0.00 0.00 80 1009.8
20260504031059 37 0 0.0 1.7 0.00 0.00 0.00 81 1009.7
20260504030600 37 0 0.0 1.7 0.00 0.00 0.00 81 1009.6
20260504030100 37 0 0.0 2.6 0.00 0.00 0.00 82 1009.6
20260504025558 36 262 0.0 2.6 0.00 0.00 0.00 82 1009.7
20260504025059 35 297 0.0 1.7 0.00 0.00 0.00 84 1009.7
20260504024559 35 304 0.0 1.7 0.00 0.00 0.00 84 1009.6
20260504024059 35 0 0.0 1.7 0.00 0.00 0.00 83 1009.6
20260504023559 35 0 0.0 1.7 0.00 0.00 0.00 83 1009.6
20260504023100 35 157 0.0 1.7 0.00 0.00 0.00 82 1009.6
20260504022559 35 0 0.0 2.6 0.00 0.00 0.00 83 1009.7
20260504022058 35 0 0.0 2.6 0.00 0.00 0.00 83 1009.8
20260504021601 35 0 0.0 1.7 0.00 0.00 0.00 83 1009.9
20260504021057 35 165 0.0 1.7 0.00 0.00 0.00 83 1009.9
20260504020602 35 0 0.0 1.7 0.00 0.00 0.00 82 1009.9
20260504020059 36 0 0.0 1.7 0.00 0.00 0.00 81 1009.9
20260504015559 36 202 0.0 2.6 0.00 0.00 0.00 81 1009.9
20260504015101 36 153 0.0 2.6 0.00 0.00 0.00 81 1009.9
20260504014618 36 0 0.0 2.6 0.00 0.00 0.00 80 1010.0
20260504014100 36 169 0.0 2.6 0.00 0.00 0.00 79 1010.0
20260504013559 36 0 0.0 2.6 0.00 0.00 0.00 78 1010.0
20260504013104 37 0 0.0 2.6 0.00 0.00 0.00 78 1009.8
20260504012557 37 0 0.9 2.6 0.00 0.00 0.00 78 1009.7
20260504012059 37 0 0.0 2.6 0.00 0.00 0.00 78 1009.7
20260504011603 37 0 0.0 2.6 0.00 0.00 0.00 78 1009.6
20260504011102 37 176 0.0 2.6 0.00 0.00 0.00 78 1009.5
20260504010559 37 152 0.0 2.6 0.00 0.00 0.00 78 1009.5
20260504010100 38 0 0.0 1.7 0.00 0.00 0.00 77 1009.4
20260504005558 38 0 0.0 0.9 0.00 0.00 0.00 75 1009.2
20260504005059 38 0 0.0 0.9 0.00 0.00 0.00 77 1009.3
20260504004559 39 0 0.0 1.7 0.00 0.00 0.00 76 1009.1
20260504004057 39 181 0.0 1.7 0.00 0.00 0.00 76 1009.0
20260504003603 40 292 0.9 1.7 0.00 0.00 0.00 74 1009.1
20260504003101 40 286 0.0 1.7 0.00 0.00 0.00 75 1009.0
20260504002558 40 0 0.0 1.7 0.00 0.00 0.00 73 1008.9
20260504002059 41 283 0.9 2.6 0.00 0.00 0.00 72 1008.9
20260504001616 41 305 0.9 2.6 0.00 0.00 0.00 70 1008.8
20260504001059 42 307 1.7 2.6 0.00 0.00 0.00 68 1008.7
20260504000559 42 302 0.9 2.6 0.00 0.00 0.00 68 1008.6
20260504000100 42 300 0.9 2.6 0.00 0.00 0.00 68 1008.6
20260503235600 43 301 0.0 3.5 0.00 0.00 0.00 68 1008.6
20260503235059 44 0 1.7 3.5 0.00 0.00 0.00 65 1008.5
20260503234600 44 301 2.6 3.5 0.00 0.00 0.00 63 1008.3
20260503234059 45 279 1.7 3.5 0.00 0.00 0.00 62 1008.3
20260503233559 45 302 1.7 3.5 0.00 0.00 0.00 61 1008.3
20260503233103 45 300 0.9 2.6 0.00 0.00 0.00 62 1008.2
20260503232558 45 307 0.9 3.5 0.00 0.00 0.00 62 1008.1
20260503232058 45 271 0.9 3.5 0.00 0.00 0.00 60 1008.2
20260503231559 45 0 0.9 2.6 0.00 0.00 0.00 63 1008.1
20260503231101 45 297 1.7 2.6 0.00 0.00 0.00 60 1008.0
20260503230601 46 306 0.9 2.6 0.00 0.00 0.00 58 1008.0
20260503230100 46 299 0.9 2.6 0.00 0.00 0.00 57 1008.0
20260503225557 46 275 0.9 3.5 0.00 0.00 0.00 56 1008.1
20260503225101 46 297 0.9 3.5 0.00 0.00 0.00 59 1008.0
20260503224559 47 302 0.9 3.5 0.00 0.00 0.00 56 1008.1
20260503224059 47 325 0.9 3.5 0.00 0.00 0.00 52 1007.9
20260503223558 48 0 0.0 5.2 0.00 0.00 0.00 53 1008.1
20260503223059 48 285 0.9 7.0 0.00 0.00 0.00 52 1008.1
20260503222558 49 63 1.7 8.7 0.00 0.00 0.00 42 1008.1
20260503222058 49 348 0.9 8.7 0.00 0.00 0.00 46 1008.1
20260503221558 50 345 3.5 8.7 0.00 0.00 0.00 41 1008.2
20260503221059 50 8 2.6 9.6 0.00 0.00 0.00 41 1008.2
20260503220559 50 340 2.6 9.6 0.00 0.00 0.00 41 1008.2
20260503220104 50 56 2.6 9.6 0.00 0.00 0.00 42 1008.1
20260503215601 50 1 1.7 7.8 0.00 0.00 0.00 42 1008.1
20260503215057 50 0 1.7 12.2 0.00 0.00 0.00 45 1008.1
20260503214559 50 100 1.7 13.9 0.00 0.00 0.00 43 1008.1
20260503214104 50 1 2.6 13.9 0.00 0.00 0.00 42 1008.1
20260503213603 50 72 3.5 13.9 0.00 0.00 0.00 41 1008.1
20260503213111 50 79 1.7 8.7 0.00 0.00 0.00 44 1008.1
20260503212600 50 20 1.7 6.1 0.00 0.00 0.00 44 1008.1
20260503212059 50 63 0.9 6.1 0.00 0.00 0.00 47 1008.0
20260503211559 50 224 1.7 7.8 0.00 0.00 0.00 47 1008.1
20260503211057 50 341 0.9 9.6 0.00 0.00 0.00 48 1007.9
20260503210559 50 59 1.7 9.6 0.00 0.00 0.00 44 1007.9
20260503210105 50 49 1.7 7.0 0.00 0.00 0.00 43 1007.9
20260503205559 50 49 2.6 7.0 0.00 0.00 0.00 45 1007.9
20260503205103 50 343 0.9 7.0 0.00 0.00 0.00 49 1008.0
20260503204601 50 27 1.7 11.3 0.00 0.00 0.00 46 1008.1
20260503204102 50 50 4.3 11.3 0.00 0.00 0.00 46 1008.1
20260503203600 50 24 0.0 9.6 0.00 0.00 0.00 48 1008.1
20260503203104 49 311 1.7 9.6 0.00 0.00 0.00 49 1008.3
20260503202600 50 331 2.6 9.6 0.00 0.00 0.00 45 1008.4
20260503202100 50 30 1.7 9.6 0.00 0.00 0.00 47 1008.2
20260503201600 49 25 2.6 7.8 0.00 0.00 0.00 45 1008.4
20260503201100 49 193 1.7 7.8 0.00 0.00 0.00 48 1008.4
20260503200604 49 178 0.9 6.1 0.00 0.00 0.00 48 1008.3
20260503200105 49 79 0.0 4.3 0.00 0.00 0.00 47 1008.3
20260503195559 49 226 0.9 5.2 0.00 0.00 0.00 46 1008.5
20260503195059 49 0 0.0 7.0 0.00 0.00 0.00 46 1008.6
20260503194600 49 44 1.7 7.0 0.00 0.00 0.00 47 1008.6
20260503194103 49 340 1.7 9.6 0.00 0.00 0.00 46 1008.6
20260503193558 49 11 4.3 9.6 0.00 0.00 0.00 46 1008.8
20260503193112 49 68 1.7 9.6 0.00 0.00 0.00 46 1008.8
20260503192558 49 304 2.6 9.6 0.00 0.00 0.00 47 1008.8
20260503192100 49 60 2.6 10.4 0.00 0.00 0.00 46 1008.8
20260503191609 49 32 0.9 10.4 0.00 0.00 0.00 51 1008.8
20260503191057 49 354 3.5 11.3 0.00 0.00 0.00 46 1008.9
20260503190601 49 338 2.6 11.3 0.00 0.00 0.00 44 1008.8
20260503190101 49 132 1.7 10.4 0.00 0.00 0.00 49 1008.8
20260503185600 49 338 0.9 10.4 0.00 0.00 0.00 48 1008.8
20260503185102 49 75 4.3 12.2 0.00 0.00 0.00 45 1008.8
20260503184611 49 0 3.5 12.2 0.00 0.00 0.00 48 1008.8
20260503184100 48 73 0.9 7.0 0.00 0.00 0.00 48 1009.1
20260503183557 48 18 0.9 7.8 0.00 0.00 0.00 49 1009.0
20260503183110 48 347 0.9 7.8 0.00 0.00 0.00 49 1009.1
20260503182603 48 20 0.9 6.1 0.00 0.00 0.00 49 1009.1
20260503182059 48 356 2.6 7.0 0.00 0.00 0.00 47 1009.1
20260503181609 48 71 0.9 9.6 0.00 0.00 0.00 49 1009.1
20260503181058 48 331 2.6 9.6 0.00 0.00 0.00 47 1009.1
20260503180559 48 5 1.7 8.7 0.00 0.00 0.00 47 1009.1
20260503180057 48 0 3.5 8.7 0.00 0.00 0.00 48 1009.1
20260503175601 48 54 3.5 9.6 0.00 0.02 0.00 46 1009.1
20260503175101 48 254 3.5 9.6 0.00 0.02 0.00 48 1009.2
20260503174600 48 58 0.9 8.7 0.00 0.02 0.00 49 1009.1
20260503174100 47 219 2.6 8.7 0.00 0.02 0.00 48 1009.0
20260503173600 47 0 1.7 11.3 0.00 0.02 0.00 46 1009.2
20260503173102 47 0 2.6 11.3 0.00 0.02 0.00 47 1009.1
20260503172600 48 53 4.3 11.3 0.00 0.02 0.00 50 1009.1
20260503172059 48 356 1.7 7.8 0.00 0.02 0.00 50 1009.2